Year,Month,Day,Hour,Minute,Value (Times are PST for temperature in C)
2012,11,17,00,00,6.50
2012,11,17,00,01,6.50
2012,11,17,00,02,6.50
2012,11,17,00,03,6.50
2012,11,17,00,04,6.50
2012,11,17,00,05,6.50
2012,11,17,00,06,6.50
2012,11,17,00,07,6.50
2012,11,17,00,08,6.50
2012,11,17,00,09,6.50
2012,11,17,00,10,6.50
2012,11,17,00,11,6.50
2012,11,17,00,12,6.60
2012,11,17,00,13,6.60
2012,11,17,00,14,6.60
2012,11,17,00,15,6.60
2012,11,17,00,16,6.50
2012,11,17,00,17,6.50
2012,11,17,00,18,6.50
2012,11,17,00,19,6.40
2012,11,17,00,20,6.40
2012,11,17,00,21,6.50
2012,11,17,00,22,6.50
2012,11,17,00,23,6.50
2012,11,17,00,24,6.50
2012,11,17,00,25,6.60
2012,11,17,00,26,6.60
2012,11,17,00,27,6.60
2012,11,17,00,28,6.60
2012,11,17,00,29,6.70
2012,11,17,00,30,6.70
2012,11,17,00,31,6.70
2012,11,17,00,32,6.70
2012,11,17,00,33,6.80
2012,11,17,00,34,6.80
2012,11,17,00,35,6.80
2012,11,17,00,36,6.80
2012,11,17,00,37,6.80
2012,11,17,00,38,6.80
2012,11,17,00,39,6.80
2012,11,17,00,40,6.80
2012,11,17,00,41,6.80
2012,11,17,00,42,6.80
2012,11,17,00,43,6.80
2012,11,17,00,44,6.80
2012,11,17,00,45,6.80
2012,11,17,00,46,6.80
2012,11,17,00,47,6.80
2012,11,17,00,48,6.80
2012,11,17,00,49,6.80
2012,11,17,00,50,6.90
2012,11,17,00,51,6.90
2012,11,17,00,52,6.90
2012,11,17,00,53,6.90
2012,11,17,00,54,6.90
2012,11,17,00,55,7.00
2012,11,17,00,56,7.00
2012,11,17,00,57,7.10
2012,11,17,00,58,7.10
2012,11,17,00,59,7.10
2012,11,17,01,00,7.10
2012,11,17,01,01,7.20
2012,11,17,01,02,7.20
2012,11,17,01,03,7.20
2012,11,17,01,04,7.20
2012,11,17,01,05,7.20
2012,11,17,01,06,7.30
2012,11,17,01,07,7.30
2012,11,17,01,08,7.40
2012,11,17,01,09,7.50
2012,11,17,01,10,7.60
2012,11,17,01,11,7.70
2012,11,17,01,12,7.70
2012,11,17,01,13,7.70
2012,11,17,01,14,7.80
2012,11,17,01,15,7.80
2012,11,17,01,16,7.80
2012,11,17,01,17,7.80
2012,11,17,01,18,7.80
2012,11,17,01,19,7.80
2012,11,17,01,20,7.80
2012,11,17,01,21,7.80
2012,11,17,01,22,7.90
2012,11,17,01,23,7.90
2012,11,17,01,24,7.90
2012,11,17,01,25,7.90
2012,11,17,01,26,7.90
2012,11,17,01,27,7.90
2012,11,17,01,28,7.90
2012,11,17,01,29,7.90
2012,11,17,01,30,7.90
2012,11,17,01,31,8.00
2012,11,17,01,32,8.00
2012,11,17,01,33,8.10
2012,11,17,01,34,8.10
2012,11,17,01,35,8.10
2012,11,17,01,36,8.20
2012,11,17,01,37,8.30
2012,11,17,01,38,8.40
2012,11,17,01,39,8.50
2012,11,17,01,40,8.60
2012,11,17,01,41,8.70
2012,11,17,01,42,8.70
2012,11,17,01,43,8.80
2012,11,17,01,44,8.80
2012,11,17,01,45,8.80
2012,11,17,01,46,8.80
2012,11,17,01,47,8.80
2012,11,17,01,48,8.90
2012,11,17,01,49,9.00
2012,11,17,01,50,9.10
2012,11,17,01,51,9.20
2012,11,17,01,52,9.30
2012,11,17,01,53,9.40
2012,11,17,01,54,9.50
2012,11,17,01,55,9.50
2012,11,17,01,56,9.50
2012,11,17,01,57,9.60
2012,11,17,01,58,9.60
2012,11,17,01,59,9.60
2012,11,17,02,00,9.70
2012,11,17,02,01,9.70
2012,11,17,02,02,9.70
2012,11,17,02,03,9.70
2012,11,17,02,04,9.70
2012,11,17,02,05,9.70
2012,11,17,02,06,9.70
2012,11,17,02,07,9.70
2012,11,17,02,08,9.80
2012,11,17,02,09,9.80
2012,11,17,02,10,9.80
2012,11,17,02,11,9.80
2012,11,17,02,12,9.80
2012,11,17,02,13,9.80
2012,11,17,02,14,9.80
2012,11,17,02,15,9.80
2012,11,17,02,16,9.80
2012,11,17,02,17,9.70
2012,11,17,02,18,9.70
2012,11,17,02,19,9.70
2012,11,17,02,20,9.70
2012,11,17,02,21,9.70
2012,11,17,02,22,9.70
2012,11,17,02,23,9.70
2012,11,17,02,24,9.80
2012,11,17,02,25,9.80
2012,11,17,02,26,9.80
2012,11,17,02,27,9.80
2012,11,17,02,28,9.80
2012,11,17,02,29,9.80
2012,11,17,02,30,9.90
2012,11,17,02,31,10.00
2012,11,17,02,32,10.00
2012,11,17,02,33,10.10
2012,11,17,02,34,10.10
2012,11,17,02,35,10.10
2012,11,17,02,36,10.10
2012,11,17,02,37,10.10
2012,11,17,02,38,10.10
2012,11,17,02,39,10.10
2012,11,17,02,40,10.10
2012,11,17,02,41,10.20
2012,11,17,02,42,10.20
2012,11,17,02,43,10.20
2012,11,17,02,44,10.20
2012,11,17,02,45,10.30
2012,11,17,02,46,10.20
2012,11,17,02,47,10.20
2012,11,17,02,48,10.20
2012,11,17,02,49,10.20
2012,11,17,02,50,10.20
2012,11,17,02,51,10.20
2012,11,17,02,52,10.20
2012,11,17,02,53,10.20
2012,11,17,02,54,10.20
2012,11,17,02,55,10.20
2012,11,17,02,56,10.20
2012,11,17,02,57,10.20
2012,11,17,02,58,10.20
2012,11,17,02,59,10.20
2012,11,17,03,00,10.20
2012,11,17,03,01,10.20
2012,11,17,03,02,10.20
2012,11,17,03,06,10.20
2012,11,17,03,07,10.20
2012,11,17,03,08,10.20
2012,11,17,03,09,10.30
2012,11,17,03,10,10.30
2012,11,17,03,11,10.30
2012,11,17,03,12,10.30
2012,11,17,03,13,10.30
2012,11,17,03,14,10.30
2012,11,17,03,15,10.30
2012,11,17,03,16,10.40
2012,11,17,03,17,10.40
2012,11,17,03,18,10.40
2012,11,17,03,19,10.40
2012,11,17,03,20,10.40
2012,11,17,03,21,10.50
2012,11,17,03,22,10.50
2012,11,17,03,23,10.50
2012,11,17,03,24,10.50
2012,11,17,03,25,10.50
2012,11,17,03,26,10.60
2012,11,17,03,27,10.60
2012,11,17,03,28,10.60
2012,11,17,03,29,10.60
2012,11,17,03,30,10.60
2012,11,17,03,31,10.60
2012,11,17,03,32,10.60
2012,11,17,03,33,10.60
2012,11,17,03,34,10.60
2012,11,17,03,35,10.60
2012,11,17,03,36,10.60
2012,11,17,03,37,10.50
2012,11,17,03,38,10.50
2012,11,17,03,39,10.50
2012,11,17,03,40,10.50
2012,11,17,03,41,10.40
2012,11,17,03,42,10.40
2012,11,17,03,43,10.40
2012,11,17,03,44,10.40
2012,11,17,03,45,10.30
2012,11,17,03,46,10.30
2012,11,17,03,47,10.30
2012,11,17,03,48,10.30
2012,11,17,03,49,10.20
2012,11,17,03,50,10.20
2012,11,17,03,51,10.20
2012,11,17,03,52,10.20
2012,11,17,03,53,10.20
2012,11,17,03,54,10.20
2012,11,17,03,55,10.20
2012,11,17,03,56,10.20
2012,11,17,03,57,10.20
2012,11,17,03,58,10.20
2012,11,17,03,59,10.30
2012,11,17,04,00,10.30
2012,11,17,04,01,10.30
2012,11,17,04,02,10.30
2012,11,17,04,03,10.30
2012,11,17,04,04,10.30
2012,11,17,04,05,10.30
2012,11,17,04,06,10.30
2012,11,17,04,07,10.30
2012,11,17,04,08,10.30
2012,11,17,04,09,10.30
2012,11,17,04,10,10.20
2012,11,17,04,11,10.20
2012,11,17,04,12,10.20
2012,11,17,04,13,10.20
2012,11,17,04,14,10.20
2012,11,17,04,15,10.20
2012,11,17,04,16,10.20
2012,11,17,04,17,10.10
2012,11,17,04,18,10.10
2012,11,17,04,19,10.10
2012,11,17,04,20,10.10
2012,11,17,04,21,10.10
2012,11,17,04,22,10.10
2012,11,17,04,23,10.10
2012,11,17,04,24,10.10
2012,11,17,04,25,10.10
2012,11,17,04,26,10.10
2012,11,17,04,27,10.10
2012,11,17,04,28,10.10
2012,11,17,04,29,10.10
2012,11,17,04,30,10.10
2012,11,17,04,31,10.20
2012,11,17,04,32,10.20
2012,11,17,04,33,10.20
2012,11,17,04,34,10.20
2012,11,17,04,35,10.30
2012,11,17,04,36,10.30
2012,11,17,04,37,10.30
2012,11,17,04,38,10.30
2012,11,17,04,39,10.30
2012,11,17,04,40,10.40
2012,11,17,04,41,10.40
2012,11,17,04,42,10.40
2012,11,17,04,43,10.50
2012,11,17,04,44,10.50
2012,11,17,04,45,10.40
2012,11,17,04,46,10.40
2012,11,17,04,47,10.40
2012,11,17,04,48,10.40
2012,11,17,04,49,10.50
2012,11,17,04,50,10.50
2012,11,17,04,51,10.50
2012,11,17,04,52,10.50
2012,11,17,04,53,10.60
2012,11,17,04,54,10.50
2012,11,17,04,55,10.50
2012,11,17,04,56,10.50
2012,11,17,04,57,10.50
2012,11,17,04,58,10.60
2012,11,17,04,59,10.60
2012,11,17,05,00,10.60
2012,11,17,05,01,10.50
2012,11,17,05,02,10.50
2012,11,17,05,03,10.50
2012,11,17,05,04,10.50
2012,11,17,05,05,10.50
2012,11,17,05,06,10.50
2012,11,17,05,07,10.50
2012,11,17,05,08,10.50
2012,11,17,05,09,10.50
2012,11,17,05,10,10.50
2012,11,17,05,11,10.50
2012,11,17,05,12,10.50
2012,11,17,05,13,10.50
2012,11,17,05,14,10.50
2012,11,17,05,15,10.40
2012,11,17,05,16,10.40
2012,11,17,05,17,10.40
2012,11,17,05,18,10.40
2012,11,17,05,19,10.30
2012,11,17,05,20,10.30
2012,11,17,05,21,10.20
2012,11,17,05,22,10.20
2012,11,17,05,23,10.20
2012,11,17,05,24,10.10
2012,11,17,05,25,10.00
2012,11,17,05,26,10.00
2012,11,17,05,27,9.90
2012,11,17,05,28,9.90
2012,11,17,05,29,9.90
2012,11,17,05,30,9.80
2012,11,17,05,31,9.80
2012,11,17,05,32,9.80
2012,11,17,05,33,9.80
2012,11,17,05,34,9.80
2012,11,17,05,35,9.80
2012,11,17,05,36,9.70
2012,11,17,05,37,9.70
2012,11,17,05,38,9.70
2012,11,17,05,39,9.60
2012,11,17,05,40,9.60
2012,11,17,05,41,9.60
2012,11,17,05,42,9.60
2012,11,17,05,43,9.60
2012,11,17,05,44,9.60
2012,11,17,05,45,9.60
2012,11,17,05,46,9.60
2012,11,17,05,47,9.60
2012,11,17,05,48,9.60
2012,11,17,05,49,9.70
2012,11,17,05,50,9.70
2012,11,17,05,51,9.70
2012,11,17,05,52,9.70
2012,11,17,05,53,9.70
2012,11,17,05,54,9.80
2012,11,17,05,55,9.70
2012,11,17,05,56,9.80
2012,11,17,05,57,9.70
2012,11,17,05,58,9.70
2012,11,17,05,59,9.70
2012,11,17,06,00,9.70
2012,11,17,06,01,9.70
2012,11,17,06,02,9.80
2012,11,17,06,03,9.80
2012,11,17,06,04,9.90
2012,11,17,06,05,9.90
2012,11,17,06,06,10.00
2012,11,17,06,07,10.10
2012,11,17,06,08,10.10
2012,11,17,06,09,10.10
2012,11,17,06,10,10.20
2012,11,17,06,11,10.20
2012,11,17,06,12,10.20
2012,11,17,06,13,10.30
2012,11,17,06,14,10.30
2012,11,17,06,15,10.30
2012,11,17,06,16,10.30
2012,11,17,06,17,10.30
2012,11,17,06,18,10.30
2012,11,17,06,19,10.30
2012,11,17,06,20,10.30
2012,11,17,06,21,10.30
2012,11,17,06,22,10.30
2012,11,17,06,23,10.30
2012,11,17,06,24,10.30
2012,11,17,06,25,10.30
2012,11,17,06,26,10.30
2012,11,17,06,27,10.30
2012,11,17,06,28,10.30
2012,11,17,06,29,10.30
2012,11,17,06,30,10.30
2012,11,17,06,31,10.20
2012,11,17,06,32,10.20
2012,11,17,06,33,10.20
2012,11,17,06,34,10.20
2012,11,17,06,35,10.20
2012,11,17,06,36,10.20
2012,11,17,06,37,10.20
2012,11,17,06,38,10.20
2012,11,17,06,39,10.30
2012,11,17,06,40,10.30
2012,11,17,06,41,10.30
2012,11,17,06,42,10.30
2012,11,17,06,43,10.30
2012,11,17,06,44,10.30
2012,11,17,06,45,10.30
2012,11,17,06,46,10.30
2012,11,17,06,47,10.30
2012,11,17,06,48,10.20
2012,11,17,06,49,10.20
2012,11,17,06,50,10.10
2012,11,17,06,51,10.00
2012,11,17,06,52,10.00
2012,11,17,06,53,9.90
2012,11,17,06,54,9.80
2012,11,17,06,55,9.70
2012,11,17,06,56,9.70
2012,11,17,06,57,9.60
2012,11,17,06,58,9.50
2012,11,17,06,59,9.40
2012,11,17,07,00,9.30
2012,11,17,07,01,9.30
2012,11,17,07,02,9.20
2012,11,17,07,03,9.10
2012,11,17,07,04,9.00
2012,11,17,07,05,8.90
2012,11,17,07,06,8.90
2012,11,17,07,07,8.80
2012,11,17,07,08,8.80
2012,11,17,07,09,8.70
2012,11,17,07,10,8.70
2012,11,17,07,11,8.70
2012,11,17,07,12,8.60
2012,11,17,07,13,8.60
2012,11,17,07,14,8.60
2012,11,17,07,15,8.60
2012,11,17,07,16,8.50
2012,11,17,07,17,8.50
2012,11,17,07,18,8.50
2012,11,17,07,19,8.40
2012,11,17,07,20,8.40
2012,11,17,07,21,8.40
2012,11,17,07,22,8.40
2012,11,17,07,23,8.40
2012,11,17,07,24,8.40
2012,11,17,07,25,8.30
2012,11,17,07,26,8.30
2012,11,17,07,27,8.30
2012,11,17,07,28,8.20
2012,11,17,07,29,8.20
2012,11,17,07,30,8.20
2012,11,17,07,31,8.20
2012,11,17,07,32,8.20
2012,11,17,07,33,8.20
2012,11,17,07,34,8.20
2012,11,17,07,35,8.10
2012,11,17,07,36,8.10
2012,11,17,07,37,8.10
2012,11,17,07,38,8.10
2012,11,17,07,39,8.10
2012,11,17,07,40,8.10
2012,11,17,07,41,8.10
2012,11,17,07,42,8.10
2012,11,17,07,43,8.10
2012,11,17,07,44,8.10
2012,11,17,07,45,8.10
2012,11,17,07,46,8.10
2012,11,17,07,47,8.10
2012,11,17,07,48,8.10
2012,11,17,07,49,8.10
2012,11,17,07,50,8.10
2012,11,17,07,51,8.10
2012,11,17,07,52,8.10
2012,11,17,07,53,8.10
2012,11,17,07,54,8.10
2012,11,17,07,55,8.10
2012,11,17,07,56,8.00
2012,11,17,07,57,8.00
2012,11,17,07,58,8.00
2012,11,17,07,59,8.00
2012,11,17,08,00,8.10
2012,11,17,08,01,8.10
2012,11,17,08,02,8.10
2012,11,17,08,03,8.00
2012,11,17,08,04,8.00
2012,11,17,08,05,8.00
2012,11,17,08,06,7.90
2012,11,17,08,07,7.90
2012,11,17,08,08,7.90
2012,11,17,08,09,7.90
2012,11,17,08,10,7.90
2012,11,17,08,11,7.90
2012,11,17,08,12,7.90
2012,11,17,08,13,7.90
2012,11,17,08,14,7.90
2012,11,17,08,15,7.80
2012,11,17,08,16,7.80
2012,11,17,08,17,7.80
2012,11,17,08,18,7.80
2012,11,17,08,19,7.80
2012,11,17,08,20,7.80
2012,11,17,08,21,7.80
2012,11,17,08,22,7.80
2012,11,17,08,23,7.80
2012,11,17,08,24,7.80
2012,11,17,08,25,7.80
2012,11,17,08,26,7.80
2012,11,17,08,27,7.80
2012,11,17,08,28,7.80
2012,11,17,08,29,7.80
2012,11,17,08,30,7.80
2012,11,17,08,31,7.80
2012,11,17,08,32,7.80
2012,11,17,08,33,7.80
2012,11,17,08,34,7.80
2012,11,17,08,35,7.70
2012,11,17,08,36,7.70
2012,11,17,08,37,7.70
2012,11,17,08,38,7.60
2012,11,17,08,39,7.60
2012,11,17,08,40,7.60
2012,11,17,08,41,7.50
2012,11,17,08,42,7.50
2012,11,17,08,43,7.50
2012,11,17,08,44,7.40
2012,11,17,08,45,7.40
2012,11,17,08,46,7.40
2012,11,17,08,47,7.40
2012,11,17,08,48,7.40
2012,11,17,08,49,7.30
2012,11,17,08,50,7.30
2012,11,17,08,51,7.40
2012,11,17,08,52,7.30
2012,11,17,08,53,7.30
2012,11,17,08,54,7.30
2012,11,17,08,55,7.30
2012,11,17,08,56,7.30
2012,11,17,08,57,7.30
2012,11,17,08,58,7.30
2012,11,17,08,59,7.30
2012,11,17,09,00,7.30
2012,11,17,09,01,7.30
2012,11,17,09,02,7.40
2012,11,17,09,03,7.30
2012,11,17,09,04,7.40
2012,11,17,09,05,7.40
2012,11,17,09,06,7.40
2012,11,17,09,07,7.40
2012,11,17,09,08,7.40
2012,11,17,09,09,7.40
2012,11,17,09,10,7.40
2012,11,17,09,11,7.40
2012,11,17,09,12,7.30
2012,11,17,09,13,7.30
2012,11,17,09,14,7.30
2012,11,17,09,15,7.40
2012,11,17,09,16,7.40
2012,11,17,09,17,7.30
2012,11,17,09,18,7.40
2012,11,17,09,19,7.40
2012,11,17,09,20,7.40
2012,11,17,09,21,7.40
2012,11,17,09,22,7.40
2012,11,17,09,23,7.40
2012,11,17,09,24,7.30
2012,11,17,09,25,7.30
2012,11,17,09,26,7.30
2012,11,17,09,27,7.30
2012,11,17,09,28,7.30
2012,11,17,09,29,7.30
2012,11,17,09,30,7.30
2012,11,17,09,31,7.30
2012,11,17,09,32,7.30
2012,11,17,09,33,7.30
2012,11,17,09,34,7.30
2012,11,17,09,35,7.20
2012,11,17,09,36,7.20
2012,11,17,09,37,7.20
2012,11,17,09,38,7.20
2012,11,17,09,39,7.20
2012,11,17,09,40,7.20
2012,11,17,09,41,7.20
2012,11,17,09,42,7.20
2012,11,17,09,43,7.20
2012,11,17,09,44,7.20
2012,11,17,09,45,7.20
2012,11,17,09,46,7.20
2012,11,17,09,47,7.20
2012,11,17,09,48,7.10
2012,11,17,09,49,7.10
2012,11,17,09,50,7.10
2012,11,17,09,51,7.10
2012,11,17,09,52,7.10
2012,11,17,09,53,7.10
2012,11,17,09,54,7.10
2012,11,17,09,55,7.10
2012,11,17,09,56,7.10
2012,11,17,09,57,7.10
2012,11,17,09,58,7.10
2012,11,17,09,59,7.10
2012,11,17,10,00,7.10
2012,11,17,10,01,7.10
2012,11,17,10,02,7.10
2012,11,17,10,03,7.00
2012,11,17,10,04,7.00
2012,11,17,10,05,7.00
2012,11,17,10,06,7.00
2012,11,17,10,07,7.00
2012,11,17,10,08,7.00
2012,11,17,10,09,7.10
2012,11,17,10,10,7.10
2012,11,17,10,11,7.10
2012,11,17,10,12,7.10
2012,11,17,10,13,7.10
2012,11,17,10,14,7.10
2012,11,17,10,15,7.10
2012,11,17,10,16,7.10
2012,11,17,10,17,7.10
2012,11,17,10,18,7.00
2012,11,17,10,19,7.10
2012,11,17,10,20,7.10
2012,11,17,10,21,7.10
2012,11,17,10,22,7.10
2012,11,17,10,23,7.10
2012,11,17,10,24,7.10
2012,11,17,10,25,7.20
2012,11,17,10,26,7.20
2012,11,17,10,27,7.20
2012,11,17,10,28,7.20
2012,11,17,10,29,7.20
2012,11,17,10,30,7.20
2012,11,17,10,31,7.20
2012,11,17,10,32,7.20
2012,11,17,10,33,7.20
2012,11,17,10,34,7.20
2012,11,17,10,35,7.10
2012,11,17,10,36,7.10
2012,11,17,10,37,7.10
2012,11,17,10,38,7.10
2012,11,17,10,39,7.10
2012,11,17,10,40,7.10
2012,11,17,10,41,7.10
2012,11,17,10,42,7.10
2012,11,17,10,43,7.10
2012,11,17,10,44,7.10
2012,11,17,10,45,7.10
2012,11,17,10,46,7.00
2012,11,17,10,47,7.00
2012,11,17,10,48,7.00
2012,11,17,10,49,7.00
2012,11,17,10,50,7.00
2012,11,17,10,51,6.90
2012,11,17,10,52,6.90
2012,11,17,10,53,6.90
2012,11,17,10,54,6.90
2012,11,17,10,55,6.90
2012,11,17,10,56,6.90
2012,11,17,10,57,6.90
2012,11,17,10,58,6.90
2012,11,17,10,59,6.90
2012,11,17,11,00,6.90
2012,11,17,11,01,6.90
2012,11,17,11,02,6.90
2012,11,17,11,03,6.90
2012,11,17,11,04,6.90
2012,11,17,11,05,6.80
2012,11,17,11,06,6.80
2012,11,17,11,07,6.80
2012,11,17,11,08,6.80
2012,11,17,11,09,6.80
2012,11,17,11,10,6.80
2012,11,17,11,11,6.80
2012,11,17,11,12,6.70
2012,11,17,11,13,6.70
2012,11,17,11,14,6.70
2012,11,17,11,15,6.60
2012,11,17,11,16,6.60
2012,11,17,11,17,6.50
2012,11,17,11,18,6.50
2012,11,17,11,19,6.50
2012,11,17,11,20,6.40
2012,11,17,11,21,6.40
2012,11,17,11,22,6.40
2012,11,17,11,23,6.40
2012,11,17,11,24,6.30
2012,11,17,11,25,6.30
2012,11,17,11,26,6.30
2012,11,17,11,27,6.30
2012,11,17,11,28,6.30
2012,11,17,11,29,6.30
2012,11,17,11,30,6.30
2012,11,17,11,31,6.30
2012,11,17,11,32,6.20
2012,11,17,11,33,6.20
2012,11,17,11,34,6.20
2012,11,17,11,35,6.20
2012,11,17,11,36,6.20
2012,11,17,11,37,6.20
2012,11,17,11,38,6.20
2012,11,17,11,39,6.20
2012,11,17,11,40,6.20
2012,11,17,11,41,6.20
2012,11,17,11,42,6.20
2012,11,17,11,43,6.10
2012,11,17,11,44,6.10
2012,11,17,11,45,6.10
2012,11,17,11,46,6.00
2012,11,17,11,47,6.00
2012,11,17,11,48,6.00
2012,11,17,11,49,5.90
2012,11,17,11,50,5.90
2012,11,17,11,51,5.90
2012,11,17,11,52,5.80
2012,11,17,11,53,5.80
2012,11,17,11,54,5.80
2012,11,17,11,55,5.80
2012,11,17,11,56,5.80
2012,11,17,11,57,5.70
2012,11,17,11,58,5.70
2012,11,17,11,59,5.70
2012,11,17,12,00,5.70
2012,11,17,12,01,5.70
2012,11,17,12,02,5.70
2012,11,17,12,03,5.70
2012,11,17,12,04,5.70
2012,11,17,12,05,5.70
2012,11,17,12,06,5.70
2012,11,17,12,07,5.70
2012,11,17,12,08,5.70
2012,11,17,12,09,5.70
2012,11,17,12,10,5.70
2012,11,17,12,11,5.70
2012,11,17,12,12,5.70
2012,11,17,12,13,5.70
2012,11,17,12,14,5.70
2012,11,17,12,15,5.70
2012,11,17,12,16,5.70
2012,11,17,12,17,5.70
2012,11,17,12,18,5.70
2012,11,17,12,19,5.70
2012,11,17,12,20,5.70
2012,11,17,12,21,5.70
2012,11,17,12,22,5.70
2012,11,17,12,23,5.70
2012,11,17,12,24,5.70
2012,11,17,12,25,5.70
2012,11,17,12,26,5.70
2012,11,17,12,27,5.70
2012,11,17,12,28,5.70
2012,11,17,12,29,5.80
2012,11,17,12,30,5.80
2012,11,17,12,31,5.80
2012,11,17,12,32,5.80
2012,11,17,12,33,5.80
2012,11,17,12,34,5.80
2012,11,17,12,35,5.80
2012,11,17,12,36,5.80
2012,11,17,12,37,5.80
2012,11,17,12,38,5.80
2012,11,17,12,39,5.80
2012,11,17,12,40,5.80
2012,11,17,12,41,5.80
2012,11,17,12,42,5.80
2012,11,17,12,43,5.80
2012,11,17,12,44,5.80
2012,11,17,12,45,5.90
2012,11,17,12,46,5.90
2012,11,17,12,47,5.90
2012,11,17,12,48,5.90
2012,11,17,12,49,5.90
2012,11,17,12,50,5.90
2012,11,17,12,51,5.90
2012,11,17,12,52,5.90
2012,11,17,12,53,5.90
2012,11,17,12,54,6.00
2012,11,17,12,55,6.00
2012,11,17,12,56,6.00
2012,11,17,12,57,6.00
2012,11,17,12,58,6.10
2012,11,17,12,59,6.10
2012,11,17,13,00,6.10
2012,11,17,13,01,6.10
2012,11,17,13,02,6.00
2012,11,17,13,03,6.00
2012,11,17,13,04,6.10
2012,11,17,13,05,6.00
2012,11,17,13,06,6.00
2012,11,17,13,07,6.10
2012,11,17,13,08,6.10
2012,11,17,13,09,6.10
2012,11,17,13,10,6.10
2012,11,17,13,11,6.10
2012,11,17,13,12,6.10
2012,11,17,13,13,6.10
2012,11,17,13,14,6.10
2012,11,17,13,15,6.10
2012,11,17,13,16,6.10
2012,11,17,13,17,6.10
2012,11,17,13,18,6.10
2012,11,17,13,19,6.10
2012,11,17,13,20,6.10
2012,11,17,13,21,6.10
2012,11,17,13,22,6.10
2012,11,17,13,23,6.10
2012,11,17,13,24,6.20
2012,11,17,13,25,6.20
2012,11,17,13,26,6.20
2012,11,17,13,27,6.20
2012,11,17,13,28,6.20
2012,11,17,13,29,6.20
2012,11,17,13,30,6.20
2012,11,17,13,31,6.20
2012,11,17,13,32,6.30
2012,11,17,13,33,6.30
2012,11,17,13,34,6.30
2012,11,17,13,35,6.30
2012,11,17,13,36,6.30
2012,11,17,13,37,6.30
2012,11,17,13,38,6.30
2012,11,17,13,39,6.30
2012,11,17,13,40,6.20
2012,11,17,13,41,6.20
2012,11,17,13,42,6.20
2012,11,17,13,43,6.20
2012,11,17,13,44,6.20
2012,11,17,13,45,6.20
2012,11,17,13,46,6.20
2012,11,17,13,47,6.20
2012,11,17,13,48,6.20
2012,11,17,13,49,6.20
2012,11,17,13,50,6.20
2012,11,17,13,51,6.20
2012,11,17,13,52,6.20
2012,11,17,13,53,6.10
2012,11,17,13,54,6.10
2012,11,17,13,55,6.10
2012,11,17,13,56,6.00
2012,11,17,13,57,6.00
2012,11,17,13,58,6.00
2012,11,17,13,59,5.90
2012,11,17,14,00,5.90
2012,11,17,14,01,5.90
2012,11,17,14,02,5.90
2012,11,17,14,03,5.90
2012,11,17,14,04,5.90
2012,11,17,14,05,5.90
2012,11,17,14,06,5.90
2012,11,17,14,07,5.90
2012,11,17,14,08,5.90
2012,11,17,14,09,5.90
2012,11,17,14,10,5.90
2012,11,17,14,11,5.90
2012,11,17,14,12,6.00
2012,11,17,14,13,6.00
2012,11,17,14,14,6.00
2012,11,17,14,15,6.10
2012,11,17,14,16,6.00
2012,11,17,14,17,6.10
2012,11,17,14,18,6.10
2012,11,17,14,19,6.10
2012,11,17,14,20,6.10
2012,11,17,14,21,6.10
2012,11,17,14,22,6.10
2012,11,17,14,23,6.10
2012,11,17,14,24,6.10
2012,11,17,14,25,6.10
2012,11,17,14,26,6.20
2012,11,17,14,27,6.20
2012,11,17,14,28,6.20
2012,11,17,14,29,6.20
2012,11,17,14,30,6.30
2012,11,17,14,31,6.30
2012,11,17,14,32,6.30
2012,11,17,14,33,6.40
2012,11,17,14,34,6.40
2012,11,17,14,35,6.40
2012,11,17,14,36,6.40
2012,11,17,14,37,6.40
2012,11,17,14,38,6.40
2012,11,17,14,39,6.50
2012,11,17,14,40,6.50
2012,11,17,14,41,6.50
2012,11,17,14,42,6.60
2012,11,17,14,43,6.60
2012,11,17,14,44,6.60
2012,11,17,14,45,6.60
2012,11,17,14,46,6.60
2012,11,17,14,47,6.60
2012,11,17,14,48,6.60
2012,11,17,14,49,6.60
2012,11,17,14,50,6.60
2012,11,17,14,51,6.60
2012,11,17,14,52,6.60
2012,11,17,14,53,6.60
2012,11,17,14,54,6.60
2012,11,17,14,55,6.70
2012,11,17,14,56,6.70
2012,11,17,14,57,6.80
2012,11,17,14,58,6.80
2012,11,17,14,59,6.90
2012,11,17,15,00,6.90
2012,11,17,15,01,6.90
2012,11,17,15,02,6.90
2012,11,17,15,03,7.00
2012,11,17,15,04,7.00
2012,11,17,15,05,7.00
2012,11,17,15,06,7.00
2012,11,17,15,07,7.00
2012,11,17,15,08,7.00
2012,11,17,15,09,6.90
2012,11,17,15,10,6.90
2012,11,17,15,11,6.90
2012,11,17,15,12,6.90
2012,11,17,15,13,6.90
2012,11,17,15,14,6.90
2012,11,17,15,15,7.00
2012,11,17,15,16,7.00
2012,11,17,15,17,6.90
2012,11,17,15,18,6.90
2012,11,17,15,19,7.00
2012,11,17,15,20,7.00
2012,11,17,15,21,7.00
2012,11,17,15,22,7.00
2012,11,17,15,23,7.00
2012,11,17,15,24,7.00
2012,11,17,15,25,6.90
2012,11,17,15,26,6.90
2012,11,17,15,27,6.90
2012,11,17,15,28,6.90
2012,11,17,15,29,6.90
2012,11,17,15,30,6.80
2012,11,17,15,31,6.80
2012,11,17,15,32,6.80
2012,11,17,15,33,6.80
2012,11,17,15,34,6.80
2012,11,17,15,35,6.80
2012,11,17,15,36,6.80
2012,11,17,15,37,6.70
2012,11,17,15,38,6.70
2012,11,17,15,39,6.70
2012,11,17,15,40,6.60
2012,11,17,15,41,6.60
2012,11,17,15,42,6.50
2012,11,17,15,43,6.50
2012,11,17,15,44,6.40
2012,11,17,15,45,6.30
2012,11,17,15,46,6.30
2012,11,17,15,47,6.30
2012,11,17,15,48,6.30
2012,11,17,15,49,6.30
2012,11,17,15,50,6.30
2012,11,17,15,51,6.30
2012,11,17,15,52,6.30
2012,11,17,15,53,6.30
2012,11,17,15,54,6.30
2012,11,17,15,55,6.30
2012,11,17,15,56,6.30
2012,11,17,15,57,6.30
2012,11,17,15,58,6.30
2012,11,17,15,59,6.30
2012,11,17,16,00,6.30
2012,11,17,16,01,6.30
2012,11,17,16,02,6.30
2012,11,17,16,03,6.30
2012,11,17,16,04,6.30
2012,11,17,16,05,6.30
2012,11,17,16,06,6.30
2012,11,17,16,07,6.30
2012,11,17,16,08,6.30
2012,11,17,16,09,6.30
2012,11,17,16,10,6.30
2012,11,17,16,11,6.30
2012,11,17,16,12,6.30
2012,11,17,16,13,6.30
2012,11,17,16,14,6.30
2012,11,17,16,15,6.30
2012,11,17,16,16,6.30
2012,11,17,16,17,6.30
2012,11,17,16,18,6.30
2012,11,17,16,19,6.30
2012,11,17,16,20,6.30
2012,11,17,16,21,6.30
2012,11,17,16,22,6.30
2012,11,17,16,23,6.30
2012,11,17,16,24,6.20
2012,11,17,16,25,6.20
2012,11,17,16,26,6.20
2012,11,17,16,27,6.20
2012,11,17,16,28,6.20
2012,11,17,16,29,6.20
2012,11,17,16,30,6.20
2012,11,17,16,31,6.20
2012,11,17,16,32,6.20
2012,11,17,16,33,6.20
2012,11,17,16,34,6.20
2012,11,17,16,35,6.20
2012,11,17,16,36,6.20
2012,11,17,16,37,6.20
2012,11,17,16,38,6.20
2012,11,17,16,39,6.20
2012,11,17,16,40,6.20
2012,11,17,16,41,6.20
2012,11,17,16,42,6.20
2012,11,17,16,43,6.20
2012,11,17,16,44,6.20
2012,11,17,16,45,6.10
2012,11,17,16,46,6.10
2012,11,17,16,47,6.10
2012,11,17,16,48,6.10
2012,11,17,16,49,6.10
2012,11,17,16,50,6.10
2012,11,17,16,51,6.10
2012,11,17,16,52,6.10
2012,11,17,16,53,6.10
2012,11,17,16,54,6.00
2012,11,17,16,55,6.00
2012,11,17,16,56,6.00
2012,11,17,16,57,5.90
2012,11,17,16,58,5.90
2012,11,17,16,59,5.90
2012,11,17,17,00,5.90
2012,11,17,17,01,5.90
2012,11,17,17,02,5.90
2012,11,17,17,03,5.90
2012,11,17,17,04,5.90
2012,11,17,17,05,5.90
2012,11,17,17,06,5.80
2012,11,17,17,07,5.80
2012,11,17,17,08,5.70
2012,11,17,17,09,5.70
2012,11,17,17,10,5.60
2012,11,17,17,11,5.50
2012,11,17,17,12,5.40
2012,11,17,17,13,5.40
2012,11,17,17,14,5.30
2012,11,17,17,15,5.30
2012,11,17,17,16,5.20
2012,11,17,17,17,5.10
2012,11,17,17,18,5.10
2012,11,17,17,19,5.00
2012,11,17,17,20,5.00
2012,11,17,17,21,4.90
2012,11,17,17,22,4.90
2012,11,17,17,23,4.80
2012,11,17,17,24,4.80
2012,11,17,17,25,4.80
2012,11,17,17,26,4.80
2012,11,17,17,27,4.70
2012,11,17,17,28,4.70
2012,11,17,17,29,4.70
2012,11,17,17,30,4.70
2012,11,17,17,31,4.60
2012,11,17,17,32,4.60
2012,11,17,17,33,4.60
2012,11,17,17,34,4.60
2012,11,17,17,35,4.60
2012,11,17,17,36,4.60
2012,11,17,17,37,4.60
2012,11,17,17,38,4.50
2012,11,17,17,39,4.50
2012,11,17,17,40,4.40
2012,11,17,17,41,4.40
2012,11,17,17,42,4.40
2012,11,17,17,43,4.40
2012,11,17,17,44,4.40
2012,11,17,17,45,4.40
2012,11,17,17,46,4.40
2012,11,17,17,47,4.40
2012,11,17,17,48,4.40
2012,11,17,17,49,4.30
2012,11,17,17,50,4.30
2012,11,17,17,51,4.40
2012,11,17,17,52,4.40
2012,11,17,17,53,4.40
2012,11,17,17,54,4.40
2012,11,17,17,55,4.40
2012,11,17,17,56,4.40
2012,11,17,17,57,4.40
2012,11,17,17,58,4.40
2012,11,17,17,59,4.40